Location: ????????
(55.6189°N, 38.3031°E)
Time: 21:19:12
(UTC+00:00)

CZ-2D R/B - Pass Details

Date: 15 November 2019
Orbit: 792 x 844 km, 98.6° (Epoch: 12 December)

Event Time Altitude Azimuth Distance (km) Brightness Sun altitude
Rises 01:11:49 0° 12° (NNE) 3,358 5.6 -31.8°
Reaches altitude 10° 01:14:35 10° 358° (N) 2,431 4.7 -31.4°
Enters shadow 01:15:11 13° 354° (N) 2,255 4.5 -31.3°
